Stations météo

Publicité
Rodez, France (7552): Température de l'air & dewpoint: 20.06.2017 07:00:00 - 26.06.2017 07:00:00 (CEST)Rodez, France (7552): Température de l'air 5cm: 20.06.2017 07:00:00 - 26.06.2017 07:00:00 (CEST)Rodez, France (7552): Vitesse du vent & gusts: 20.06.2017 07:00:00 - 26.06.2017 07:00:00 (CEST)Rodez, France (7552): Direction du vent: 20.06.2017 07:00:00 - 26.06.2017 07:00:00 (CEST)Rodez, France (7552): reduced air pressure: 20.06.2017 07:00:00 - 26.06.2017 07:00:00 (CEST)Rodez, France (7552): visibility: 20.06.2017 07:00:00 - 26.06.2017 07:00:00 (CEST)Rodez, France (7552): Ensoleillement: 20.06.2017 07:00:00 - 26.06.2017 07:00:00 (CEST)Rodez, France (7552): Quantités de précipitations: 20.06.2017 07:00:00 - 26.06.2017 07:00:00 (CEST)
Date & Time tt [°C] td [°C] tt 5cm [°C] ff [km/h] ff [knt] fx [km/h] fx [knt] dd ppp [hPa] vv [km] sd [min] rr [mm]
26.06.2017 07:00:00 17,3 12,2 14,9 0 0 22 12 N 1011,6 60 0 0,0
26.06.2017 06:00:00 17,7 11,9 15,3 13 7 20 11 ENE 1011,2 50 0 0,0
26.06.2017 05:00:00 17,2 11,0 - 2 1 5 3 SE 1012,7 60 - -
26.06.2017 04:00:00 17,7 10,8 16,1 4 2 11 6 SSE 1012,7 60 0 0,0
26.06.2017 03:00:00 17,7 10,8 14,5 6 4 10 5 SE 1013,7 60 0 0,0
26.06.2017 02:00:00 17,4 10,5 13,3 4 2 6 3 E 1014,1 60 0 0,0
26.06.2017 01:00:00 18,1 10,5 - 5 3 11 6 ESE 1014,4 60 - 0,0
26.06.2017 00:00:00 18,2 9,8 12,7 5 3 9 5 ENE 1015,1 60 0 0,0
25.06.2017 23:00:00 17,3 9,9 12,7 5 3 10 5 SW 1016,0 18 0 0,0
25.06.2017 22:00:00 21,3 10,5 15,2 3 2 10 6 WSW 1014,4 19 0 0,0
25.06.2017 21:00:00 23,8 10,5 - 5 3 15 8 NW 1013,8 50 - 0,0
25.06.2017 20:00:00 25,8 9,6 27,4 6 4 17 9 N 1013,2 58 60 0,0
25.06.2017 19:00:00 27,0 8,4 33,6 7 4 19 11 WNW 1013,6 59 60 0,0
25.06.2017 18:00:00 26,9 8,8 - 11 6 21 11 NW 1014,0 45 - 0,0
25.06.2017 17:00:00 26,4 9,7 37,7 10 6 26 14 WNW 1014,5 51 60 0,0
25.06.2017 16:00:00 25,3 8,3 38,4 13 7 27 15 NW 1015,7 58 60 0,0
25.06.2017 15:00:00 24,7 10,6 41,1 12 6 27 15 N 1016,3 59 60 0,0
25.06.2017 14:00:00 23,8 10,8 36,6 13 7 28 15 NNW 1017,1 47 60 0,0
25.06.2017 13:00:00 23,3 10,7 33,9 16 9 28 15 NW 1017,6 60 60 0,0
25.06.2017 12:00:00 21,2 10,7 31,2 13 7 23 12 NNW 1018,2 58 60 0,0
25.06.2017 11:00:00 20,2 11,1 22,9 11 6 22 12 NNW 1018,5 60 40 0,0
25.06.2017 10:00:00 19,0 13,0 23,6 13 7 20 11 NNW 1018,9 60 57 0,0
25.06.2017 09:00:00 17,7 12,8 17,9 9 5 16 9 NNW 1019,3 52 60 0,0
25.06.2017 08:00:00 16,4 13,1 13,0 9 5 16 9 NW 1019,3 32 60 0,0
25.06.2017 07:00:00 14,1 12,5 11,3 9 5 12 7 NW 1019,7 31 11 0,0
25.06.2017 06:00:00 13,7 12,1 11,8 11 6 13 7 NW 1019,9 32 0 0,0
25.06.2017 05:00:00 15,7 12,4 14,9 5 3 15 8 W 1019,7 45 0 0,0
25.06.2017 04:00:00 16,3 13,0 15,9 10 5 16 9 WNW 1020,6 50 0 0,0
25.06.2017 03:00:00 16,6 12,7 - 9 5 24 13 WNW 1020,4 50 - 0,0
25.06.2017 02:00:00 16,8 12,7 15,8 16 9 25 14 WNW 1020,5 57 0 0,0
25.06.2017 01:00:00 16,8 12,5 16,3 16 9 26 14 W 1020,6 59 0 0,0
25.06.2017 00:00:00 17,6 12,7 16,7 13 7 21 11 W 1020,5 60 0 0,0
24.06.2017 23:00:00 17,9 12,8 17,1 9 5 16 9 WNW 1020,0 60 0 0,0
24.06.2017 22:00:00 18,8 12,8 18,3 13 7 21 11 NW 1019,2 60 0 0,0
24.06.2017 21:00:00 19,5 12,7 19,7 13 7 33 18 NW 1018,5 60 13 0,0
24.06.2017 20:00:00 20,9 13,1 21,8 23 13 35 19 NW 1018,1 60 8 0,0
24.06.2017 19:00:00 21,8 13,4 - 21 11 29 16 NW 1017,1 45 - 0,0
24.06.2017 18:00:00 22,9 14,5 25,9 18 10 27 15 NNW 1017,1 50 20 0,0
24.06.2017 17:00:00 24,3 15,0 30,6 18 10 31 17 NW 1016,9 27 43 0,0
24.06.2017 16:00:00 23,8 14,8 32,0 17 9 33 18 WNW 1017,7 28 42 0,0
24.06.2017 15:00:00 23,0 14,6 - 13 7 26 14 NW 1018,2 35 - 0,0
24.06.2017 14:00:00 21,8 14,2 29,2 12 7 23 12 NW 1019,2 40 36 0,0
24.06.2017 13:00:00 20,8 13,7 - 13 7 22 12 WNW 1019,8 45 - 0,0
24.06.2017 12:00:00 20,2 14,1 23,6 10 6 21 11 NNW 1020,0 56 0 0,0
24.06.2017 11:00:00 19,2 14,5 23,1 13 7 18 10 WNW 1020,6 44 0 0,0
24.06.2017 10:00:00 18,8 14,5 22,8 10 5 16 9 NNW 1020,7 47 0 0,0
24.06.2017 09:00:00 18,7 14,8 20,3 8 4 12 7 NW 1020,8 44 0 0,0
24.06.2017 08:00:00 18,0 15,1 18,2 4 2 10 5 WNW 1021,2 37 0 0,0
24.06.2017 07:00:00 17,5 15,3 17,5 5 3 10 6 WNW 1021,6 32 0 0,0
24.06.2017 06:00:00 17,6 15,4 17,6 6 4 16 9 NW 1021,7 31 0 0,0
24.06.2017 05:00:00 17,9 15,7 17,9 12 6 21 11 WNW 1021,9 28 0 0,0
24.06.2017 04:00:00 18,2 16,2 18,3 11 6 17 9 NW 1022,1 26 0 0,0
24.06.2017 03:00:00 18,5 16,7 18,6 13 7 19 10 NW 1021,9 25 0 0,0
24.06.2017 02:00:00 18,8 17,1 18,8 12 7 17 9 NW 1022,1 13 0 0,0
24.06.2017 01:00:00 19,1 17,4 - 13 7 18 10 NW 1022,1 27 - 0,0
24.06.2017 00:00:00 19,4 17,5 19,4 14 7 18 10 WNW 1022,0 35 0 0,0
23.06.2017 23:00:00 19,6 17,4 19,7 9 5 14 8 WNW 1022,0 48 0 0,0
23.06.2017 22:00:00 19,8 17,6 20,0 8 5 16 8 NW 1021,9 51 0 0,0
23.06.2017 21:00:00 20,0 17,6 20,4 13 7 21 11 NW 1021,4 49 0 0,0
23.06.2017 20:00:00 20,6 17,8 21,4 16 9 23 12 WNW 1020,8 55 0 0,0
23.06.2017 19:00:00 21,4 17,8 24,5 13 7 18 10 W 1020,3 40 0 0,0
23.06.2017 18:00:00 22,8 17,9 26,0 11 6 20 11 WNW 1019,8 60 6 0,0
23.06.2017 17:00:00 21,8 18,2 - 13 7 22 12 NNW 1020,4 17 - -
23.06.2017 16:00:00 21,0 18,6 23,7 15 8 22 12 NW 1021,1 26 0 0,0
23.06.2017 15:00:00 21,0 18,6 23,6 14 8 19 10 NNW 1021,4 54 0 0,0
23.06.2017 14:00:00 21,6 18,4 25,5 10 5 16 9 NNW 1021,3 20 0 0,0
23.06.2017 13:00:00 21,5 18,5 25,2 9 5 13 7 NNW 1021,2 27 0 0,0
23.06.2017 12:00:00 21,3 18,1 25,1 5 3 9 5 NW 1021,3 29 0 0,0
23.06.2017 11:00:00 20,6 18,0 24,1 6 3 10 5 N 1021,7 19 0 0,0
23.06.2017 10:00:00 19,8 17,8 21,5 7 4 18 10 W 1021,7 19 0 0,0
23.06.2017 09:00:00 19,2 18,2 19,7 11 6 15 8 WSW 1021,4 8 0 0,0
23.06.2017 08:00:00 19,2 18,0 19,2 8 4 16 9 W 1021,0 8 0 0,0
23.06.2017 07:00:00 19,1 18,1 19,6 13 7 19 10 WSW 1020,6 8 0 0,0
23.06.2017 06:00:00 19,5 18,5 20,0 10 5 21 11 W 1020,2 2,1 0 0,0
23.06.2017 05:00:00 19,8 18,5 20,0 13 7 18 10 WSW 1019,7 7 0 0,0
23.06.2017 04:00:00 20,3 18,8 19,3 13 7 22 12 WNW 1019,2 10 0 0,0
23.06.2017 03:00:00 21,0 18,4 - 13 7 21 11 WNW 1018,8 14 - 0,0
23.06.2017 02:00:00 20,7 15,7 15,8 8 4 26 14 WSW 1018,9 33 0 0,0
23.06.2017 01:00:00 20,3 15,5 16,1 2 1 4 2 SSE 1018,2 28 0 0,0
23.06.2017 00:00:00 21,8 16,1 17,0 2 1 4 2 SSW 1017,8 31 0 0,0
22.06.2017 23:00:00 25,3 15,0 19,0 0 0 6 3 N 1016,9 32 0 0,0
22.06.2017 22:00:00 25,7 15,4 20,9 4 2 7 4 SW 1016,1 41 0 0,0
22.06.2017 21:00:00 28,9 16,5 28,0 7 4 14 8 NNW 1015,1 19 46 0,0
22.06.2017 20:00:00 31,8 16,1 33,4 9 5 15 8 N 1014,3 45 60 0,0
22.06.2017 19:00:00 32,4 15,8 36,2 11 6 25 13 N 1013,8 49 60 0,0
22.06.2017 18:00:00 33,8 14,8 41,1 12 6 26 14 NW 1013,6 37 60 0,0
22.06.2017 17:00:00 33,8 14,8 42,5 11 6 30 16 NW 1014,2 35 60 0,0
22.06.2017 16:00:00 33,4 14,9 49,6 11 6 29 15 WNW 1014,3 34 60 0,0
22.06.2017 15:00:00 32,4 15,4 48,2 11 6 29 16 NW 1014,7 30 60 0,0
22.06.2017 14:00:00 32,9 17,1 36,6 12 6 27 14 WNW 1014,4 28 46 0,0
22.06.2017 13:00:00 30,7 16,7 35,8 14 8 25 13 NNW 1015,3 31 39 0,0
22.06.2017 12:00:00 31,0 19,4 41,5 9 5 27 15 W 1015,4 37 60 0,0
22.06.2017 11:00:00 29,4 19,4 38,5 8 4 16 9 NNW 1015,5 20 60 0,0
22.06.2017 10:00:00 28,4 17,6 30,6 3 1 8 4 E 1015,7 20 60 0,0
22.06.2017 09:00:00 25,5 17,4 23,0 5 3 10 5 SSE 1016,1 34 60 0,0
22.06.2017 08:00:00 22,0 17,4 17,8 5 3 8 4 SE 1016,6 17 60 0,0
22.06.2017 07:00:00 19,0 16,4 15,6 4 2 9 5 ESE 1017,1 14 0 0,0
22.06.2017 06:00:00 18,5 15,6 15,5 3 2 7 4 ESE 1017,0 15 0 0,0
22.06.2017 05:00:00 19,9 16,3 15,9 6 3 9 5 E 1016,4 18 0 0,0
22.06.2017 04:00:00 19,7 16,0 16,0 5 3 10 6 SE 1016,6 22 0 0,0
22.06.2017 03:00:00 19,1 15,8 16,1 5 3 8 5 SSE 1016,6 25 0 0,0
22.06.2017 02:00:00 20,6 16,2 17,5 3 1 9 5 SE 1016,6 20 0 0,0
22.06.2017 01:00:00 22,1 16,4 18,0 8 4 11 6 E 1016,3 32 0 0,0
22.06.2017 00:00:00 22,2 16,0 18,0 2 1 6 3 S 1016,0 37 0 0,0
21.06.2017 23:00:00 25,1 16,3 20,0 7 4 12 7 ENE 1015,5 41 0 0,0
21.06.2017 22:00:00 26,5 15,2 22,7 4 2 12 6 ESE 1015,0 37 12 0,0
21.06.2017 21:00:00 29,5 16,3 28,4 4 2 12 6 N 1013,9 44 60 0,0
21.06.2017 20:00:00 30,6 15,8 - 11 6 22 12 NW 1012,9 45 - -
21.06.2017 19:00:00 31,9 14,1 37,7 13 7 24 13 NW 1012,6 60 60 0,0
21.06.2017 18:00:00 31,9 13,6 40,2 11 6 21 12 NW 1012,6 60 60 0,0
21.06.2017 17:00:00 31,7 14,8 - 13 7 26 14 NW 1012,8 35 - -
21.06.2017 16:00:00 32,1 15,6 43,8 15 8 27 15 WNW 1012,9 45 60 0,0
21.06.2017 15:00:00 31,3 16,1 45,8 13 7 26 14 NW 1013,2 49 60 0,0
21.06.2017 14:00:00 30,3 16,0 44,0 9 5 26 14 N 1014,0 53 60 0,0
21.06.2017 13:00:00 30,0 16,4 42,8 12 6 21 12 NNW 1014,4 20 60 0,0
21.06.2017 12:00:00 29,1 16,6 39,8 7 4 15 8 WNW 1014,8 54 60 0,0
21.06.2017 11:00:00 27,6 17,7 34,5 7 4 15 8 NNW 1015,0 52 60 0,0
21.06.2017 10:00:00 26,1 18,0 28,3 5 3 12 6 N 1015,1 28 60 0,0
21.06.2017 09:00:00 24,0 17,3 20,1 3 1 8 4 ESE 1015,6 20 60 0,0
21.06.2017 08:00:00 19,9 16,3 16,0 3 2 5 3 S 1016,3 19 60 0,0
21.06.2017 07:00:00 17,9 15,9 13,5 3 2 5 3 E 1016,7 12 4 0,0
21.06.2017 06:00:00 17,4 15,2 13,5 0 0 7 4 N 1016,4 11 0 0,0
21.06.2017 05:00:00 17,1 15,6 13,5 4 2 5 3 S 1016,5 13 0 0,0
21.06.2017 04:00:00 17,7 15,5 14,1 3 2 5 3 ESE 1016,4 19 0 0,0
21.06.2017 03:00:00 18,1 15,5 14,7 3 1 6 3 S 1016,8 18 0 0,0
21.06.2017 02:00:00 20,0 16,0 15,5 5 3 7 4 SE 1016,6 24 0 0,0
21.06.2017 01:00:00 20,4 16,4 16,2 5 3 7 4 SSE 1016,6 16 0 0,0
21.06.2017 00:00:00 21,4 16,1 17,3 5 3 8 4 SSW 1016,6 16 0 0,0
20.06.2017 23:00:00 22,8 16,6 18,4 5 3 12 6 SSE 1016,4 34 0 0,0
20.06.2017 22:00:00 24,2 17,0 21,4 10 6 16 9 S 1015,6 42 0 0,0
20.06.2017 21:00:00 27,0 14,7 24,0 8 4 17 9 W 1014,5 53 20 0,0
20.06.2017 20:00:00 30,4 15,7 34,1 12 7 23 13 WSW 1013,6 54 60 0,0
20.06.2017 19:00:00 31,5 15,9 - 15 8 22 12 SW 1013,2 50 - 0,0
20.06.2017 18:00:00 32,0 15,5 46,2 9 5 21 12 SW 1013,3 46 60 0,0
20.06.2017 17:00:00 32,1 15,6 49,9 14 8 24 13 SW 1013,8 43 60 0,0
20.06.2017 16:00:00 32,0 16,3 51,1 13 7 28 15 SSW 1013,9 48 60 0,0
20.06.2017 15:00:00 31,4 15,4 49,3 14 7 26 14 SSW 1014,5 54 60 0,0
20.06.2017 14:00:00 30,1 15,8 47,4 12 6 22 12 S 1015,1 60 46 0,0
20.06.2017 13:00:00 30,3 15,2 48,3 11 6 22 12 S 1015,5 60 60 0,0
20.06.2017 12:00:00 29,3 15,1 45,3 9 5 18 10 SSW 1016,0 60 60 0,0
20.06.2017 11:00:00 27,1 14,1 34,9 8 4 22 12 S 1016,7 49 60 0,0
20.06.2017 10:00:00 25,2 13,4 27,8 12 7 24 13 SSE 1017,1 51 60 0,0
20.06.2017 09:00:00 23,2 12,2 21,6 10 5 18 10 ESE 1017,4 60 60 0,0
20.06.2017 08:00:00 20,6 12,0 17,4 11 6 15 8 E 1017,9 60 60 0,0
20.06.2017 07:00:00 19,1 11,9 14,8 8 4 13 7 E 1018,4 44 7 0,0

tt = Température de l'air
td = dewpoint
tt 5cm = Température de l'air 5cm
ff = Vitesse du vent
fx = gusts
dd = Direction du vent
ppp = reduced air pressure
vv = visibility
sd = Ensoleillement
rr = Quantités de précipitations

stations d'obs. à proximité